Home   Weather   Trois-Rivieres   Past weeks

Flag for Canada Past Weather in Trois-Rivieres, Quebec, Canada — Yesterday and Last 2 Weeks

Now
38 °F

Chilly.


Feels Like: 33 °F
Forecast: 29 / 56 °F
Wind: 6 mph from Northeast

Location: Trois Rivieres

Current Time: Apr 25, 2017 at 1:09:27 am

Latest Report: Apr 25, 2017 at 12:00 am


Visibility: N/A

Pressure: 30.32 "Hg

Humidity: 39%

Dew Point: 15 °F

Location of Trois-RivieresLocation

Past Weather in Trois-Rivieres — Graph

°F

Trois-Rivieres Temperature Yesterday

Maximum temperature yesterday: 45 °F (at 5:00 pm)
Minimum temperature yesterday: 28 °F (at 6:00 am)
Average temperature yesterday: 36 °F

High & Low Weather Summary for the Past Weeks

 TemperatureHumidityPressure
High61 °F (Apr 10, 7:00 pm)100% (Apr 10, 5:00 am)30.51 "Hg (Apr 10, 5:00 am)
Low28 °F (Apr 24, 6:00 am)25% (Apr 13, 6:00 pm)29.64 "Hg (Apr 16, 5:00 am)
Average42 °F79%30.06 "Hg
* Reported Apr 9 11:00 pm — Apr 24 11:00 pm, Trois-Rivieres, Weather by CustomWeather, © 2017

Note: Actual official high and low records may vary slightly from our data, if they occured in-between our weather recording intervals... More about our weather records

Advertising

Trois-Rivieres Weather History for the Previous 24 Hours

Scroll right to see more
 ConditionsComfort  
Time TempWeatherWind HumidityBarometerVisibility
11:00 pm
Mon, Apr 24
40 °FChilly.6 mph35%30.33 "HgN/A
10:00 pm42 °FQuite cool.5 mph39%30.32 "HgN/A
9:00 pm41 °FQuite cool.3 mph57%30.31 "HgN/A
8:00 pm43 °FQuite cool.5 mph47%30.28 "HgN/A
7:00 pm44 °FQuite cool.6 mph42%30.28 "HgN/A
6:00 pm44 °FQuite cool.7 mph40%30.27 "HgN/A
5:00 pm45 °FQuite cool.7 mph29%30.27 "HgN/A
4:00 pm40 °FQuite cool.8 mph40%30.28 "HgN/A
3:00 pm42 °FQuite cool.5 mph25%30.30 "HgN/A
2:00 pm40 °FChilly.3 mph37%30.30 "HgN/A
1:00 pm38 °FChilly.6 mph34%30.32 "HgN/A
12:00 pm35 °FChilly.8 mph36%30.32 "HgN/A
11:00 am33 °FChilly.7 mph42%30.35 "HgN/A
10:00 am31 °FChilly.7 mph45%30.35 "HgN/A
9:00 am30 °FChilly.8 mph54%30.34 "HgN/A
8:00 am29 °FChilly.10 mph55%30.31 "HgN/A
7:00 am28 °FChilly.12 mph60%30.29 "HgN/A
6:00 am28 °FChilly.10 mph56%30.25 "HgN/A
5:00 am30 °FChilly.10 mph62%30.22 "HgN/A
4:00 am32 °FChilly.6 mph71%30.20 "HgN/A
3:00 am31 °FChilly.6 mph73%30.18 "HgN/A
2:00 am34 °FChilly.7 mph68%30.16 "HgN/A
1:00 am35 °FChilly.10 mph68%30.14 "HgN/A
Weather by CustomWeather, © 2017

See weather overviewHow to use our weather pages